Weather History for Point Lay, AK

Change the Weather History Date:

Monday, January 21, 2013

  Actual Average Record
Temperature  
Mean Temperature -11 °F -  
Max Temperature -8 °F -7 °F 23 °F (2008)
Min Temperature -14 °F -19 °F -38 °F (1999)
Degree Days  
Heating Degree Days 76    
Moisture  
Dew Point -17 °F    
Average Humidity 78    
Maximum Humidity 84    
Minimum Humidity 71    
Precipitation  
Precipitation 0.00 in - - ()
Sea Level Pressure  
Sea Level Pressure 30.51 in    
Wind  
Wind Speed 26 mph (ENE)    
Max Wind Speed 37 mph    
Max Gust Speed 46 mph    
Averages and records for this station are not official NWS values.
T = Trace of Precipitation, MM = Missing Value Source: NWS Daily Summary

Daily Weather History Graph

Daily Weather History Graph

Search for Another Location

Airport:

Trip Planner

Search our weather history database for the weather conditions in past years. The results will help you decide how hot, cold, wet, or windy it might be!

Date:

Astronomy

Jan. 21, 2013 Rise Set
Actual Time 12:34 PM AKST 3:33 PM AKST
Civil Twilight 10:45 AM AKST 5:22 PM AKST
Nautical Twilight 9:21 AM AKST 6:46 PM AKST
Astronomical Twilight 8:09 AM AKST 7:59 PM AKST
Moon 10:39 AM AKST (1/21) 8:52 AM AKST (1/21)
Length of Visible Light 6h 36m
Length of Day
2h 59m
Waxing Gibbous, 76% of the Moon is Illuminated
Jan 21
Waxing Gibbous
Jan 26
Full
Feb 3
Last Quarter
Feb 9
New
Feb 17
First Quarter

Hourly Weather History & Observations

Time (AKST) Temp. Windchill Dew Point Humidity Pressure Visibility Wind Dir Wind Speed Gust Speed Precip Events Conditions
12:26 AM -11.2 °F -41.0 °F -16.6 °F 77% 30.45 in 0.5 mi ENE 29.9 mph 36.8 mph 0.00 in   Overcast
12:56 AM -9.9 °F -37.5 °F -15.9 °F 75% 30.47 in - ENE 25.3 mph 38.0 mph 0.00 in Snow Light Snow
1:56 AM -9.9 °F -39.7 °F -15.0 °F 78% 30.46 in 0.2 mi ENE 31.1 mph 43.7 mph 0.00 in Snow Heavy Snow
2:56 AM -9.4 °F -40.5 °F -14.8 °F 77% 30.44 in 0.2 mi ENE 35.7 mph 40.3 mph N/A Snow Heavy Snow
3:42 AM -9.4 °F -40.2 °F -14.8 °F 77% 30.44 in 0.5 mi ENE 34.5 mph 43.7 mph 0.00 in Snow Snow
3:56 AM -8.9 °F -40.2 °F -13.9 °F 79% 30.45 in 0.5 mi ENE 36.8 mph 44.9 mph 0.00 in Snow Snow
4:56 AM -8.9 °F -38.3 °F -13.9 °F 79% 30.46 in 0.5 mi ENE 31.1 mph 42.6 mph 0.00 in Snow Snow
5:56 AM -9.4 °F -39.8 °F -14.8 °F 77% 30.46 in 0.5 mi ENE 33.4 mph 43.7 mph N/A Snow Snow
6:34 AM -9.4 °F -39.8 °F -14.8 °F 77% 30.46 in 0.2 mi ENE 33.4 mph 46.0 mph 0.00 in Snow Heavy Snow
6:42 AM -9.4 °F -39.4 °F -14.8 °F 77% 30.46 in 0.5 mi ENE 32.2 mph 42.6 mph 0.00 in Snow Snow
6:56 AM -8.9 °F -40.2 °F -13.9 °F 79% 30.48 in 0.5 mi ENE 36.8 mph 44.9 mph 0.00 in Snow Snow
7:34 AM -9.4 °F -40.2 °F -14.8 °F 77% 30.46 in 0.2 mi ENE 34.5 mph 41.4 mph 0.00 in Snow Heavy Snow
7:42 AM -9.4 °F -40.2 °F -14.8 °F 77% 30.46 in 0.5 mi ENE 34.5 mph 44.9 mph 0.00 in Snow Snow
7:56 AM -8.9 °F -37.9 °F -13.9 °F 79% 30.48 in 0.5 mi ENE 29.9 mph 38.0 mph 0.00 in   Overcast
8:56 AM -9.4 °F -39.8 °F -14.8 °F 77% 30.47 in 0.5 mi ENE 33.4 mph 38.0 mph N/A Snow Snow
9:56 AM -9.9 °F -39.7 °F -15.0 °F 78% 30.51 in 0.5 mi ENE 31.1 mph 39.1 mph 0.00 in Snow Snow
10:56 AM -9.9 °F -40.5 °F -15.9 °F 75% 30.52 in 0.5 mi ENE 33.4 mph 40.3 mph 0.00 in Snow Snow
11:49 AM -9.4 °F -38.6 °F -16.6 °F 71% 30.51 in 0.2 mi ENE 29.9 mph 41.4 mph 0.00 in   Haze
11:56 AM -11.2 °F -40.6 °F -16.6 °F 77% 30.51 in 0.2 mi ENE 28.8 mph 38.0 mph N/A   Haze
12:56 PM -11.9 °F -40.6 °F -17.0 °F 78% 30.54 in 0.2 mi ENE 26.5 mph 38.0 mph 0.00 in   Haze
1:56 PM -13.0 °F -42.6 °F -18.9 °F 75% 30.55 in 0.2 mi ENE 27.6 mph 34.5 mph 0.00 in Snow Heavy Snow
2:42 PM -14.8 °F -44.0 °F -18.4 °F 84% 30.54 in 0.5 mi ENE 25.3 mph 32.2 mph 0.00 in   Haze
2:56 PM -14.8 °F -44.0 °F -18.4 °F 84% 30.55 in 0.2 mi ENE 25.3 mph - N/A   Haze
3:07 PM -14.8 °F -42.9 °F -18.4 °F 84% 30.54 in 0.5 mi ENE 23.0 mph 29.9 mph N/A   Haze
3:36 PM -14.8 °F - -18.4 °F 84% 30.54 in 0.2 mi Calm Calm - N/A   Haze
3:56 PM -13.9 °F - -18.9 °F 78% 30.56 in 0.2 mi Calm Calm - N/A   Haze
4:25 PM -14.8 °F - -18.4 °F 84% 30.54 in 0.5 mi Calm Calm - N/A   Haze
4:49 PM -14.8 °F - -18.4 °F 84% 30.54 in 0.2 mi Calm Calm - N/A   Haze
4:56 PM -13.9 °F - -18.9 °F 78% 30.55 in 0.5 mi Calm Calm - N/A   Haze
5:09 PM -14.8 °F - -18.4 °F 84% 30.53 in 0.8 mi Calm Calm - 0.00 in Snow Light Snow
5:56 PM -13.0 °F - -18.4 °F 77% 30.53 in 0.8 mi Calm Calm - N/A   Haze
6:56 PM -13.0 °F - -18.9 °F 75% 30.55 in 0.8 mi Calm Calm - N/A   Haze
7:56 PM -13.9 °F - -18.9 °F 78% 30.56 in 0.8 mi Calm Calm - N/A   Haze
8:56 PM -13.0 °F - -18.4 °F 77% 30.54 in 0.8 mi Calm Calm - N/A   Haze
9:48 PM -13.0 °F -37.5 °F -18.4 °F 77% 30.54 in - ENE 17.3 mph 25.3 mph N/A   Overcast
9:56 PM -13.0 °F -40.6 °F -17.9 °F 79% 30.55 in - ENE 23.0 mph 28.8 mph N/A   Overcast
10:56 PM -13.0 °F -40.0 °F -17.9 °F 79% 30.55 in - ENE 21.9 mph 28.8 mph N/A   Overcast
11:56 PM -13.0 °F -42.1 °F -18.9 °F 75% 30.56 in - NE 26.5 mph 29.9 mph N/A   Overcast